Location: Chefe Valiua
(16.5342°S, 37.2214°E)
Time: 01:53:21
(UTC+00:00)

CSL-04 Rocket - Pass Details

Date: 19 January 2021
Orbit: 806 x 860 km, 98.9° (Epoch: 07 March)

Event Time Altitude Azimuth Distance (km) Brightness Sun altitude
Rises 16:49:20 0° 156° (SSE) 3,335 6.8 -9.3°
Reaches altitude 10° 16:51:49 10° 148° (SSE) 2,400 6.0 -9.9°
Maximum altitude 16:56:46 40° 79° (E) 1,185 4.0 -11.0°
Drops below altitude 10° 17:01:42 10° 10° (N) 2,396 5.7 -12.0°
Sets 17:04:10 0° 3° (N) 3,329 6.5 -12.6°
